Mount Carmel, IL

2:32 AM CST on November 21, 2019 (GMT -0600)
Mount Carmel Municipal

Weather History for KAJG - October, 2019

Change the Weather History Date:

Tuesday, October 15, 2019

  Actual Average (WUND) Record (WUND)
Temperature  
Mean Temperature 56 °F -  
Max Temperature 71 °F - - (-1)
Min Temperature 40 °F - - (-1)
Degree Days  
Heating Degree Days 10    
Growing Degree Days 6 (Base 50)    
Moisture  
Dew Point 50 °F    
Average Humidity 76    
Maximum Humidity 93    
Minimum Humidity 48    
Precipitation  
Precipitation 0.00 in - - ()
Sea Level Pressure  
Sea Level Pressure 29.93 in    
Wind  
Wind Speed 9 mph (SW)    
Max Wind Speed 20 mph    
Max Gust Speed 25 mph    
Visibility 9 miles    
Events Thunderstorm    
Averages and records for this station are not official NWS values.
T = Trace of Precipitation, MM = Missing Value Source: NWS Daily Summary

Daily Weather History Graph

Daily Weather History Graph

Search for Another Location

Airport or City:

Astronomy

Oct. 15, 2019 Rise Set
Actual Time 6:59 AM CDT 6:12 PM CDT
Civil Twilight 6:33 AM CDT 6:39 PM CDT
Nautical Twilight 6:02 AM CDT 7:10 PM CDT
Astronomical Twilight 5:31 AM CDT 7:41 PM CDT
Moon 7:33 PM CDT (10/15) 8:29 AM CDT (10/15)
Length of Visible Light 12h 06m
Length of Day
11h 13m
Full, 97% of the Moon is Illuminated
Oct 15
Full
Oct 21
Last Quarter
Oct 27
New
Nov 4
First Quarter
Nov 12
Full

Hourly Weather History & Observations

Time (CDT) Temp. Windchill Dew Point Humidity Pressure Visibility Wind Dir Wind Speed Gust Speed Precip Events Conditions
12:15 AM 41.9 °F - 38.3 °F 87% 30.06 in 10.0 mi North - - N/A   Clear
12:35 AM 42.3 °F - 38.5 °F 86% 30.06 in 10.0 mi North - - N/A   Clear
12:55 AM 42.1 °F - 38.5 °F 87% 30.06 in 10.0 mi North - - N/A   Clear
1:15 AM 41.5 °F - 38.7 °F 89% 30.05 in 4.0 mi North - - N/A   Clear
1:35 AM 40.5 °F - 38.1 °F 91% 30.06 in 2.5 mi North - - N/A   Clear
1:55 AM 41.4 °F - 38.5 °F 89% 30.05 in 5.0 mi North - - N/A   Clear
2:15 AM 40.3 °F - 38.1 °F 92% 30.05 in 10.0 mi North - - N/A   Clear
2:35 AM 41.9 °F - 39.4 °F 91% 30.05 in 4.0 mi North - - N/A   Clear
2:55 AM 41.0 °F - 38.3 °F 90% 30.04 in 1.5 mi North - - N/A   Mist
3:15 AM 42.3 °F - 39.4 °F 90% 30.03 in 1.5 mi North - - N/A   Mist
3:35 AM 42.1 °F - 39.2 °F 90% 30.03 in 10.0 mi North - - N/A   Clear
3:55 AM 41.7 °F - 38.8 °F 89% 30.02 in 3.0 mi North - - N/A   Clear
4:15 AM 43.0 °F - 38.3 °F 84% 30.02 in 5.0 mi North - - N/A   Haze
4:35 AM 44.2 °F - 37.9 °F 79% 30.03 in 10.0 mi North - - N/A   Clear
4:55 AM 41.7 °F - 37.4 °F 85% 30.02 in 10.0 mi North - - N/A   Clear
5:15 AM 42.3 °F - 37.8 °F 84% 30.02 in 7.0 mi North - - N/A   Clear
5:35 AM 43.9 °F - 38.1 °F 80% 30.03 in 5.0 mi North - - N/A   Haze
5:55 AM 42.8 °F - 38.3 °F 84% 30.03 in 10.0 mi North - - N/A   Clear
6:15 AM 41.4 °F - 38.1 °F 88% 30.03 in 7.0 mi North - - N/A   Clear
6:35 AM 40.6 °F - 37.4 °F 88% 30.02 in 3.0 mi North - - N/A   Clear
6:55 AM 42.4 °F 39.6 °F 39.2 °F 88% 30.01 in 10.0 mi ESE 4.6 mph - N/A   Clear
7:35 AM 44.1 °F - 41.4 °F 90% 30.01 in 10.0 mi North - - N/A   Clear
7:55 AM 46.4 °F - 42.8 °F 87% 30.01 in 10.0 mi North - - N/A   Clear
8:15 AM 48.9 °F - 44.8 °F 86% 30.00 in 10.0 mi North - - N/A   Clear
8:35 AM 52.3 °F - 46.6 °F 81% 30.00 in 5.0 mi North - - N/A   Haze
8:55 AM 55.6 °F - 48.0 °F 76% 29.99 in 10.0 mi North - - N/A   Clear
9:15 AM 58.5 °F - 49.1 °F 71% 29.99 in 10.0 mi South 8.1 mph - N/A   Clear
9:35 AM 60.3 °F - 49.6 °F 68% 29.98 in 10.0 mi South 8.1 mph - N/A   Clear
9:55 AM 62.8 °F - 50.0 °F 63% 29.98 in 10.0 mi South 8.1 mph - N/A   Clear
10:15 AM 65.5 °F - 50.7 °F 59% 29.97 in 10.0 mi SSW 8.1 mph - N/A   Clear
10:35 AM 66.2 °F - 50.4 °F 57% 29.96 in 10.0 mi South 11.5 mph - N/A   Mostly Cloudy
10:55 AM 67.6 °F - 50.4 °F 54% 29.96 in 10.0 mi SSW 11.5 mph - N/A   Overcast
11:15 AM 69.8 °F - 50.2 °F 50% 29.94 in 10.0 mi North - - N/A   Mostly Cloudy
11:35 AM 71.6 °F - 51.1 °F 48% 29.93 in 10.0 mi SSW 15.0 mph 18.4 mph N/A   Mostly Cloudy
11:55 AM 69.1 °F - 51.3 °F 53% 29.93 in 10.0 mi SW 10.4 mph - N/A   Overcast
12:15 PM 68.9 °F - 52.0 °F 55% 29.92 in 10.0 mi SW 10.4 mph - N/A   Overcast
12:35 PM 68.9 °F - 52.9 °F 57% 29.91 in 10.0 mi SSW 10.4 mph - N/A   Overcast
12:55 PM 69.6 °F - 54.1 °F 58% 29.90 in 10.0 mi SW 9.2 mph - N/A   Overcast
1:15 PM 69.4 °F - 53.6 °F 57% 29.90 in 10.0 mi SW 8.1 mph - N/A   Overcast
1:35 PM 69.8 °F - 54.7 °F 59% 29.89 in 10.0 mi SW 11.5 mph - N/A   Overcast
1:55 PM 70.0 °F - 55.6 °F 60% 29.88 in 10.0 mi SW 11.5 mph - N/A   Overcast
2:15 PM 69.8 °F - 55.8 °F 61% 29.87 in 10.0 mi SW 8.1 mph - N/A   Overcast
2:35 PM 70.3 °F - 56.3 °F 61% 29.85 in 10.0 mi SSW 9.2 mph - N/A   Overcast
2:55 PM 70.3 °F - 56.7 °F 62% 29.84 in 10.0 mi SSW 8.1 mph - N/A   Overcast
3:15 PM 71.1 °F - 56.8 °F 61% 29.84 in 10.0 mi South 9.2 mph - N/A   Overcast
3:35 PM 71.4 °F - 56.7 °F 60% 29.84 in 10.0 mi SSW 10.4 mph 16.1 mph N/A   Overcast
3:55 PM 70.9 °F - 57.2 °F 62% 29.84 in 10.0 mi SSW 9.2 mph - N/A   Overcast
4:15 PM 70.3 °F - 58.1 °F 65% 29.84 in 10.0 mi SW 9.2 mph - N/A   Overcast
4:35 PM 70.3 °F - 58.6 °F 66% 29.83 in 10.0 mi SW 8.1 mph - N/A   Overcast
4:55 PM 70.5 °F - 59.0 °F 67% 29.83 in 10.0 mi SW 6.9 mph - N/A   Overcast
5:15 PM 70.2 °F - 59.0 °F 68% 29.83 in 10.0 mi SW 10.4 mph - N/A   Overcast
5:35 PM 69.8 °F - 59.0 °F 68% 29.83 in 10.0 mi WSW 9.2 mph - N/A   Overcast
5:55 PM 68.9 °F - 59.2 °F 71% 29.84 in 10.0 mi WSW 13.8 mph 18.4 mph N/A   Overcast
6:35 PM 65.5 °F - 61.0 °F 85% 29.84 in 10.0 mi WSW 8.1 mph - N/A   Overcast
6:55 PM 65.3 °F - 60.8 °F 85% 29.83 in 10.0 mi WSW 8.1 mph - N/A   Overcast
7:15 PM 64.9 °F - 60.8 °F 86% 29.83 in 10.0 mi West 5.8 mph - N/A Thunderstorm Overcast
7:35 PM 64.4 °F - 60.8 °F 88% 29.83 in 10.0 mi North - - N/A   Overcast
7:55 PM 64.8 °F - 60.3 °F 85% 29.82 in 10.0 mi South 6.9 mph - N/A   Overcast
8:15 PM 64.4 °F - 59.9 °F 85% 29.81 in 10.0 mi North - - N/A   Overcast
8:35 PM 63.1 °F - 59.4 °F 87% 29.81 in 10.0 mi North - - N/A   Mostly Cloudy
8:55 PM 61.0 °F - 58.3 °F 91% 29.81 in 10.0 mi SW 5.8 mph - N/A   Scattered Clouds
9:15 PM 61.7 °F - 59.5 °F 93% 29.81 in 10.0 mi SW 5.8 mph - N/A   Clear
9:35 PM 62.2 °F - 60.1 °F 93% 29.82 in 10.0 mi SW 9.2 mph - N/A   Scattered Clouds
9:55 PM 63.0 °F - 60.3 °F 91% 29.81 in 10.0 mi WSW 8.1 mph - N/A   Overcast
10:15 PM 62.6 °F - 60.3 °F 92% 29.82 in 10.0 mi West 8.1 mph - N/A   Overcast
10:35 PM 62.6 °F - 60.1 °F 91% 29.82 in 10.0 mi West 6.9 mph - N/A   Overcast
11:15 PM 62.6 °F - 52.0 °F 68% 29.84 in 10.0 mi NNW 19.6 mph 24.2 mph N/A   Overcast
11:35 PM 59.9 °F - 43.5 °F 55% 29.85 in 10.0 mi NNW 18.4 mph 25.3 mph N/A   Overcast
11:55 PM 59.0 °F - 42.8 °F 55% 29.86 in 10.0 mi NNW 15.0 mph 21.9 mph N/A   Overcast